Theta_e
330 335 332 334 333 334 333 328 321 320 320 320 325 328 323 323 326 322 318 319 318 317 317 315 315 316 322 333 335 335 335 334 333 330 326 324 323 322 319 318 318 317 317
327 332 332 332 334 334 331 323 320 320 319 318 320 326 325 326 322 318 317 317 317 316 316 316 318 324 331 332 333 331 331 333 335 332 327 326 326 326 325 324 322 321 320
328 332 334 334 333 331 325 321 321 320 319 318 318 319 321 322 318 317 318 317 316 316 317 317 321 323 325 329 330 330 328 329 332 331 326 325 325 326 326 327 326 326 325
328 331 332 332 331 327 323 322 322 322 321 318 317 319 318 318 318 318 318 317 317 318 318 319 321 323 324 326 327 326 324 329 332 330 327 323 324 323 323 325 326 327 328
327 328 328 329 328 325 323 324 325 323 322 320 318 318 319 319 319 319 319 318 318 319 319 319 319 320 320 321 323 322 320 330 332 330 329 328 327 324 323 322 321 324 327
329 327 326 327 326 325 325 327 325 323 322 321 319 317 317 319 319 318 318 318 318 317 317 316 316 316 316 316 317 317 316 325 331 331 330 331 329 327 325 324 322 322 322
329 328 326 326 326 326 327 326 324 320 319 319 319 318 317 317 317 317 317 317 316 316 316 316 316 316 315 316 316 316 318 321 324 330 331 330 331 329 326 325 324 325 325
328 327 327 327 326 326 326 325 324 323 321 318 318 318 318 317 317 317 317 317 317 318 319 320 319 318 317 318 320 322 323 327 330 330 330 333 332 331 330 330 330 330 331
329 328 327 327 327 326 326 326 325 323 322 321 320 321 321 321 321 321 321 322 323 324 325 325 325 324 322 322 326 328 331 333 334 334 334 333 331 330 331 329 330 330 329
330 329 328 327 327 326 327 326 324 323 323 324 324 325 326 324 325 325 326 327 330 330 331 331 331 331 332 334 334 335 334 334 334 333 332 331 329 328 327 327 327 325 323
330 330 329 328 327 327 326 325 325 326 327 328 329 329 327 331 328 329 329 331 332 333 334 334 334 334 334 333 335 334 334 333 332 332 329 328 327 326 323 321 319 318 315
331 330 330 329 328 326 325 325 325 327 329 329 329 331 332 334 330 333 333 332 333 334 333 332 333 332 333 332 331 330 330 330 330 329 327 325 324 318 315 309 306 304 301
334 331 331 330 328 326 325 325 325 327 330 330 332 334 332 328 329 334 334 333 333 332 331 330 330 332 332 328 327 326 325 326 325 325 323 319 314 307 303 302 302 301 301
331 331 332 330 327 325 325 324 327 328 329 330 331 330 332 331 332 334 334 333 332 331 330 329 329 328 327 326 325 324 323 322 322 319 316 308 300 302 305 307 307 305 304
332 333 330 329 330 330 326 330 331 329 330 330 329 331 332 333 333 333 333 333 333 331 329 329 328 327 325 324 323 321 322 319 316 309 302 300 300 299 302 307 309 307 306
335 334 330 331 332 331 331 331 332 333 332 330 330 331 331 332 332 332 331 331 330 330 330 330 328 326 324 315 318 318 315 312 303 301 301 301 299 300 299 301 305 305 305
335 334 332 332 333 332 333 333 332 331 331 330 331 331 331 331 331 329 324 322 321 322 322 326 326 324 320 315 312 303 302 301 301 302 301 301 301 300 300 299 299 300 301
335 335 333 334 334 333 333 332 331 330 330 330 328 319 316 315 313 313 313 314 314 315 318 322 324 321 320 309 305 302 304 304 304 303 302 302 302 301 300 300 299 298 297
335 335 334 334 333 332 330 329 329 329 330 321 311 310 311 312 311 310 310 310 310 312 319 322 322 322 313 308 304 304 305 305 304 303 302 302 302 301 301 300 300 299 298
334 335 334 333 331 328 327 328 330 329 320 311 309 309 309 309 309 309 309 309 310 318 322 323 321 316 310 310 306 305 304 305 303 303 303 302 302 301 301 301 300 300 299
334 334 333 331 328 328 328 331 330 320 311 309 309 308 308 308 306 306 305 305 311 317 321 320 317 315 312 309 307 304 305 304 304 303 303 302 302 301 301 301 300 300 299
332 330 329 329 328 327 330 330 321 313 310 308 307 307 306 305 303 302 302 303 307 310 319 320 318 316 314 311 308 306 305 304 304 303 303 302 302 301 301 300 300 299 298
330 329 328 327 328 330 329 323 315 311 309 308 309 307 305 303 302 301 302 304 305 305 306 318 319 318 317 313 311 312 306 305 303 300 301 302 302 301 301 300 299 299 295
329 329 327 328 330 329 324 317 314 311 311 312 315 310 303 301 301 301 301 302 303 304 303 302 305 315 318 316 315 316 315 309 305 301 300 301 301 301 300 299 299 297 294
329 328 329 329 328 326 322 318 313 312 313 319 319 307 301 301 300 301 300 301 302 302 302 303 302 308 316 317 317 317 312 306 307 306 299 300 300 300 299 297 299 295 294
328 327 328 328 327 323 321 319 314 313 317 319 315 304 300 300 300 300 300 300 300 300 300 301 301 301 304 308 310 303 301 305 300 300 297 299 299 299 298 296 298 293 293
Wind_Speed
23 22 22 21 20 19 18 17 16 16 17 17 16 16 16 16 15 15 15 16 16 17 18 18 18 18 19 19 19 18 16 15 17 17 18 18 19 19 18 16 16 15 15
29 26 24 22 21 20 19 18 18 17 16 17 16 16 16 16 16 16 16 16 16 17 17 17 17 18 15 16 15 14 14 12 12 15 16 17 17 17 16 16 16 15 15
30 28 25 23 22 20 20 19 18 17 16 16 16 16 16 16 17 17 16 16 16 16 16 17 16 14 11 12 11 10 11 9 10 11 13 14 14 14 13 12 12 11 11
30 28 25 23 22 21 20 19 18 17 16 16 15 16 16 17 17 17 16 16 15 15 15 15 14 11 8 8 7 7 10 9 9 10 11 12 12 12 11 9 8 8 8
29 27 24 22 22 21 19 18 17 16 15 15 15 15 15 15 15 15 15 15 14 14 13 13 12 9 6 6 4 6 9 11 9 9 7 8 8 10 9 8 7 6 6
29 26 23 22 20 19 18 16 16 15 15 15 15 15 15 15 14 14 13 13 13 12 12 11 10 8 6 4 2 4 8 8 6 4 4 6 8 8 8 8 7 6 6
30 26 23 20 19 18 16 16 15 16 16 15 15 15 15 15 14 14 13 12 11 11 10 9 7 6 5 4 4 5 7 7 4 4 2 5 8 8 9 10 9 7 7
30 26 23 20 18 17 16 16 16 15 16 16 16 16 15 15 14 14 12 11 11 10 9 8 6 4 4 4 5 7 7 7 7 5 4 8 10 11 11 10 10 9 9
28 26 23 20 18 18 17 17 16 16 16 17 16 16 16 15 14 13 12 11 10 9 7 6 5 5 5 5 6 7 6 7 5 6 9 10 5 6 8 10 10 10 11
27 24 23 21 19 18 18 18 17 17 17 16 16 15 14 13 13 12 11 10 9 8 6 5 5 5 5 4 6 7 7 6 8 10 12 11 6 10 13 13 11 12 14
26 24 22 21 20 19 19 18 17 16 15 14 13 12 14 13 12 10 10 9 9 8 7 5 6 6 6 5 8 8 6 7 8 12 13 7 11 15 13 11 12 14 13
27 25 22 21 20 19 18 18 17 16 13 11 10 10 10 12 8 8 9 9 8 6 4 3 2 3 4 5 5 6 6 4 6 5 3 8 9 11 12 12 11 10 11
26 25 23 21 20 19 19 18 16 14 11 9 9 9 9 9 9 10 9 9 6 5 3 2 2 4 3 2 4 6 5 1 3 1 2 3 9 9 10 11 11 11 12
28 25 24 23 23 20 18 16 14 12 9 8 7 8 7 7 9 10 9 6 6 6 5 6 3 4 2 3 2 5 5 6 5 6 6 8 10 11 14 15 16 17 17
28 28 27 26 23 20 16 15 13 11 5 3 5 7 7 7 8 9 9 8 8 8 7 7 7 6 3 2 3 3 9 9 9 8 9 11 12 14 15 17 18 20 19
30 28 27 25 21 17 13 14 12 9 7 6 7 8 8 9 10 10 10 9 9 9 9 8 8 6 2 4 8 10 11 11 11 13 14 15 17 17 17 17 18 18 20
28 27 26 25 22 19 17 14 14 12 11 9 9 10 10 11 11 11 11 10 10 9 8 10 9 6 5 8 13 14 15 16 15 16 17 17 19 20 20 21 22 20 20
27 27 25 22 21 19 17 15 14 12 10 9 9 8 8 8 8 7 8 9 9 9 11 13 12 10 8 12 16 18 17 17 16 17 18 18 19 20 19 19 19 21 21
28 27 26 23 21 19 17 16 13 11 10 9 7 6 6 5 5 4 5 6 8 9 14 14 13 7 12 17 18 18 15 15 15 15 16 17 17 17 17 17 18 19 23
29 28 26 25 22 19 18 17 14 12 10 8 7 6 5 4 4 3 5 5 9 12 15 14 11 13 16 16 17 17 13 12 11 11 14 15 14 13 14 15 17 20 23
32 30 28 26 23 22 22 18 14 11 10 8 6 5 4 4 4 5 5 7 11 13 13 12 16 17 18 16 17 17 13 9 7 7 9 9 8 8 11 13 16 19 23
32 30 29 26 25 23 19 16 14 12 10 7 6 5 5 4 4 6 8 10 13 14 15 15 14 19 20 19 16 15 9 8 6 4 4 4 3 6 9 11 15 20 25
34 31 28 26 26 22 19 17 16 14 11 10 6 5 5 6 6 5 8 9 10 11 11 16 17 19 21 21 18 6 6 5 10 5 4 2 1 4 8 11 16 21 25
33 30 29 28 25 23 20 18 16 14 13 11 6 6 6 5 7 8 9 9 8 8 9 10 14 20 20 21 21 13 8 6 8 7 4 3 2 2 6 11 15 21 23
31 31 30 28 26 24 20 18 17 14 13 11 10 8 8 8 8 8 8 9 8 9 8 9 10 13 19 19 20 16 13 11 7 7 10 8 4 2 6 12 15 22 22
32 32 31 30 27 25 23 21 19 17 16 15 12 11 10 10 10 9 9 9 9 8 8 9 10 10 11 12 14 11 7 9 7 6 9 10 6 5 8 13 14 20 21
Wind_Direction
169 153 158 159 154 148 140 134 126 120 118 117 120 123 123 116 111 109 109 107 106 105 103 100 99 100 103 99 95 88 83 83 76 74 72 68 64 59 56 55 54 56 56
154 150 155 157 151 146 141 135 127 121 117 116 118 121 121 116 111 110 109 108 106 104 103 103 102 102 104 103 95 86 78 75 82 79 76 72 68 62 55 50 50 52 52
147 147 153 154 150 146 142 135 128 121 117 115 118 118 118 117 115 113 110 109 108 107 107 108 106 107 110 104 91 79 65 66 82 86 77 75 72 66 59 46 36 37 39
146 148 153 153 150 146 141 134 128 121 117 115 117 120 119 119 118 116 113 110 108 107 108 112 112 114 110 106 92 68 55 70 85 79 72 67 60 58 54 46 29 22 21
147 149 152 151 149 145 139 133 127 122 119 118 118 119 120 120 118 116 112 111 109 110 112 112 114 116 109 102 98 61 50 82 105 90 88 67 61 56 47 41 23 15 14
149 149 148 149 147 144 139 135 130 125 123 122 119 118 119 119 117 115 115 113 112 111 109 110 115 118 110 103 94 53 64 86 112 96 81 62 57 54 33 19 13 4 355
149 147 147 148 146 144 142 138 133 128 125 123 122 121 119 118 118 116 115 114 113 112 110 110 110 111 116 89 59 45 61 83 120 124 91 54 56 45 17 6 2 358 354
150 147 147 148 148 145 143 139 134 130 129 128 128 126 123 120 117 115 114 114 113 110 109 109 111 105 90 67 55 47 50 80 102 101 76 63 59 46 29 22 13 5 1
152 151 152 151 150 147 145 141 139 138 137 136 133 129 127 125 122 121 120 115 112 110 110 111 111 91 82 66 62 61 75 97 98 80 71 75 47 12 12 9 357 354 353
156 157 158 156 154 152 146 145 147 146 144 142 141 139 136 134 131 128 125 121 117 116 111 114 101 81 69 84 67 68 81 94 89 79 83 86 48 0 357 354 357 352 348
162 163 160 157 156 152 152 153 153 151 152 151 148 140 142 133 129 133 133 134 130 124 119 99 87 82 74 84 82 74 78 81 97 103 91 75 344 339 353 350 347 344 347
164 164 162 159 157 158 159 162 160 156 158 155 151 152 146 142 134 134 146 143 147 144 132 100 66 117 92 73 57 39 33 59 101 111 84 337 327 344 353 360 3 3 4
167 165 160 158 158 163 167 168 166 164 167 163 156 157 165 167 160 164 163 152 152 149 141 83 58 112 116 40 14 9 358 190 124 303 26 356 2 1 22 37 37 33 29
169 165 164 165 167 168 171 171 173 173 181 195 201 198 189 185 183 186 182 177 183 183 179 167 189 145 102 304 349 324 337 114 118 85 52 27 32 44 51 53 50 44 44
171 168 165 168 169 167 171 168 169 167 166 183 205 218 220 223 224 225 227 232 227 215 213 200 200 187 185 285 315 47 106 108 92 75 60 51 47 48 53 63 66 58 51
175 170 167 171 173 176 177 175 179 191 210 218 229 229 234 233 238 236 238 231 228 231 232 231 202 183 197 57 103 104 104 94 82 76 65 57 52 48 49 57 59 53 50
181 176 176 179 181 177 177 185 198 208 221 228 234 242 239 240 242 246 245 239 232 230 208 191 172 164 112 91 104 98 94 87 81 72 68 59 52 48 43 48 45 40 40
184 184 182 179 176 178 189 205 214 212 228 241 238 228 227 234 240 242 245 244 221 193 185 172 153 130 107 118 106 97 88 81 73 68 64 59 53 50 49 46 39 36 30
190 188 185 186 189 191 201 207 212 220 236 234 221 207 210 217 238 234 218 198 188 170 165 165 152 160 134 118 107 100 85 77 68 65 63 56 51 48 46 41 32 25 20
189 190 190 189 196 198 204 207 210 221 222 219 204 192 185 186 191 186 193 174 165 168 164 166 166 145 134 128 119 107 97 78 75 65 59 51 48 45 41 30 21 16 11
188 191 197 197 197 200 205 208 210 206 217 216 195 191 174 165 168 189 170 164 164 173 170 171 158 153 149 148 138 131 121 103 93 64 55 47 42 33 29 23 13 5 360
196 196 192 192 200 205 207 206 209 206 202 201 188 184 177 168 167 167 169 165 169 168 175 180 186 171 169 166 163 147 129 122 116 79 38 47 1 10 11 11 2 357 356
198 196 194 197 204 204 205 206 207 205 203 194 196 208 209 197 181 164 170 166 164 164 172 191 196 199 187 179 183 177 161 161 142 100 72 131 315 339 357 350 353 352 351
197 198 197 199 203 204 206 209 220 217 213 200 234 247 230 216 200 171 170 169 167 165 170 173 186 205 203 197 199 218 244 228 179 159 121 118 179 306 334 342 348 350 349
198 196 197 200 203 208 209 215 219 218 216 241 258 226 207 195 196 181 166 162 166 162 165 169 167 177 200 213 215 230 250 220 195 186 172 170 193 241 321 336 341 343 346
199 198 201 202 206 211 212 216 217 215 237 251 228 212 204 197 188 173 165 164 166 157 159 158 154 160 172 188 203 204 185 191 198 188 173 191 234 249 308 322 320 336 344